Starlink 35547

operational
NORAD ID: 66119 Int'l Des: 2025-237 Owner: SPXS Country: US Constellation: starlink
LEOCIRCULAR

Starlink 35547について

説明を読み込み中...

リアルタイム位置

3D地球を読み込み中...

次回通過

高度履歴

Altitude vs Time

uPlot chart will show altitude changes over time

軌道要素

1 66119C 25237F 25298.72340278 -.01152900 00000+0 -19787-2 0 2986
2 66119 53.1552 319.2571 0000841 83.0605 111.7024 16.02879276 14
Epoch: Oct 25, 2025 • Age: 154 hours

現在のステータス

高度 292.0 km
速度 7.74 km/s
衛星直下点 21.13°N, 93.98°W
打ち上げ日 Oct 22, 2025
運用期間 8 days
タイプ internet

技術仕様

分類 Payload
質量 575.00 kg
乾燥質量 530.00 kg
総質量 575.00 kg
長さ 0.30 m
直径 4.10 m
スパン 29.00 m
形状 Box + pan
製造者 SPXS
バスタイプ Starlink V2MO
フェーズステータス In Orbit
所有者/国 SPXS/US

大規模コンステレーション

Loading constellations...